Content
SEND FEEDBACK

Daily
Averages
Monthly
Summary
Canada

BEDFORD, QUEBEC


Home > North America > Canada > Quebec
Elevation: 174 feet     Latitude: 45 28N     Longitude: 073 45W

WEATHER
 
SELECT A DAY
Number of Records: 203,331;   Date Range: 1/1/95 - 12/17/14
 
SHARE

PRINT THIS DATA

[ ← Previous Day ]
WEATHER ALMANAC - NOVEMBER 16, 2013
[ Next Day → ]
[ °C ]   °F
Weather ElementAverageHighLow
Temperature44.6 °F53.6 °F (1:00 pm)35.6 °F (8:00 am)
Dewpoint30.3 °F33.8 °F (3:00 pm)24.8 °F (11:00 am)
Humidity56.9 %81 % (8:00 am)28 % (1:00 pm)
Barometer30.21 in30.26 in (11:00 am)30.13 in (1:00 am)
Wind Speed4.3 mph9.2 mph (2:00 pm)
Weather ElementAverage
Visibility16.1 mi
Wind DirectionSE (138.1 °)

Weather ElementTotal
Precipitation---
Heating Degree Days20.4 (Base 65)
Averaged from 27 records on November 16, 2013
WEATHER CONDITIONS BREAKOUT
WIND DIRECTION BREAKOUT
WEATHER BY HOUR - NOVEMBER 16, 2013
[ °C ]   °F
Local TimeTemperatureDewpointHumidityBarometerVisibilityWind DirectionWind SpeedGust SpeedPrecipitationEventsConditions
1:00 AM40.0 °F31.0 °F61 %30.13 in15.0 miCalmMostly Cloudy
1:00 AM41.0 °F32.0 °F70 %30.13 in15.0 miSW (220°)4.6 mphMostly Cloudy
2:00 AM41.0 °F32.0 °F70 %30.14 in15.0 miCalmOvercast
3:00 AM39.2 °F30.2 °F70 %30.15 in15.0 miSouth (190°)4.6 mphOvercast
4:00 AM39.2 °F30.2 °F70 %30.17 in15.0 miCalmMostly Cloudy
5:00 AM37.4 °F30.2 °F75 %30.18 in15.0 miCalmMostly Cloudy
6:00 AM37.4 °F30.2 °F75 %30.19 in15.0 miSE (140°)2.3 mphMostly Cloudy
7:00 AM40.0 °F28.0 °F50 %30.21 in15.0 miSE (140°)4.6 mphScattered Clouds
7:00 AM39.2 °F28.4 °F65 %30.21 in15.0 miSE (140°)4.6 mphMostly Cloudy
8:00 AM35.6 °F30.2 °F81 %30.22 in15.0 miCalmMostly Cloudy
9:00 AM42.8 °F30.2 °F61 %30.23 in15.0 miSE (130°)4.6 mphMostly Cloudy
10:00 AM48.2 °F26.6 °F43 %30.25 in15.0 miSouth (190°)5.8 mphPartly Cloudy
11:00 AM50.0 °F24.8 °F37 %30.26 in15.0 miSW (220°)8.1 mphScattered Clouds
12:00 PM51.8 °F28.4 °F41 %30.25 in15.0 miSouth (190°)6.9 mphPartly Cloudy
1:00 PM53.0 °F30.0 °F28 %30.24 in15.0 miSW (220°)5.8 mphScattered Clouds
1:00 PM53.6 °F30.2 °F41 %30.23 in15.0 miSW (230°)4.6 mphPartly Cloudy
2:00 PM53.6 °F32.0 °F44 %30.23 in15.0 miSW (220°)9.2 mphPartly Cloudy
3:00 PM53.6 °F33.8 °F47 %30.23 in30.0 miSSW (210°)6.9 mphPartly Cloudy
4:00 PM50.0 °F33.8 °F54 %30.23 in30.0 miSSW (210°)4.6 mphPartly Cloudy
5:00 PM46.4 °F32.0 °F57 %30.23 in15.0 miESE (120°)3.5 mphPartly Cloudy
6:00 PM48.2 °F33.8 °F58 %30.23 in15.0 miESE (110°)4.6 mphScattered Clouds
7:00 PM46.0 °F30.0 °F40 %30.22 in15.0 miESE (110°)4.6 mphClear
7:00 PM46.4 °F30.2 °F53 %30.22 in15.0 miESE (120°)3.5 mphPartly Cloudy
8:00 PM44.6 °F30.2 °F57 %30.21 in15.0 miEast (100°)5.8 mphMostly Cloudy
9:00 PM42.8 °F30.2 °F61 %30.21 in15.0 miESE (120°)4.6 mphMostly Cloudy
10:00 PM42.8 °F30.2 °F61 %30.20 in15.0 miESE (120°)5.8 mphMostly Cloudy
11:00 PM41.0 °F30.2 °F65 %30.20 in15.0 miSE (140°)6.9 mphScattered Clouds
Hourly data recorded from CYUL, located miles away from Bedford, Quebec







STORIES FROM OUR PARTNERS